Regional Weather Roundup
Issued by NWS Charleston, SC

Home | Current Version | Previous Version | Text Only | Print | Product List | Glossary On
Versions: 1 2 3 4 5 6 7 8 9 10 11 12 13 14 15 16 17 18 19 20 21 22 23 24 25 26 27 28 29 30 31 32 33 34 35 36 37 38 39 40 41 42 43 44 45 46 47 48 49 50
604
ASUS42 KCHS 180727
RWRCHS

Regional Weather Roundup
National Weather Service Charleston SC
200 AM EST SUN FEB 18 2018

NOTE: "fair" indicates few or no clouds below 12,000 feet with no
significant weather and/or obstructions to visibility.

Not all stations are quality controlled. Use data with caution,
especially dewpoint observations.

SCZ027-030-031-034>040-042>050-180800-
...Southeast South Carolina...

CITY           SKY/WX    TMP DP  RH WIND       PRES   REMARKS
N Charleston   FAIR      63  60  90 SW8       30.10S
Waterfront Prk   N/A     61  60  97 VRB3      29.96F
Mount Pleasant FAIR      61  61 100 SW6       30.10F
Johns Island     N/A     63  61  94 SW8       30.11S
Pinopolis        N/A    N/A N/A N/A SW8       29.99F
Moncks Corner  FAIR      61  59  94 SW7       30.08F
Summerville    FAIR      59  59 100 S6        30.10F
Beaufort MCAS  FAIR      61  60  97 SW7       30.12S
Beaufort Arpt  FAIR      63  59  88 SW7       30.11F
Hilton Head Is FAIR      64  59  82 SW8       30.13F
Walterboro     FAIR      59  59 100 SW7       30.10F
Allendale      FAIR      64  63  94 VRB5      30.07F

...Southern Midlands and Pee Dee...

CITY           SKY/WX    TMP DP  RH WIND       PRES   REMARKS
Georgetown     FAIR      61  59  94 SW9       30.09F
Kingstree      FAIR      59  59 100 SW3       30.07S
Orangeburg     FAIR      59  57  93 S6        30.07F
Barnwell         N/A     64  63  94 NW3       30.09R
Aiken          CLOUDY    52  52 100 CALM      30.14R
Manning        FAIR      61  48  63 MISG      30.08S
Columbia       MOCLDY    53  51  93 CALM      30.10R
Sumter         MOCLDY    56  53  89 NW7       30.07R
Florence       CLOUDY    57  56  96 CALM      30.08R FOG
Myrtle Beach   FAIR      62  59  90 W8        30.08F
N Myrtle Beach FAIR      55  55 100 SW5       30.07R FOG

$$

GAZ063-065-086>088-099>101-113>116-118-119-134>141-150-180800-
...Southeast Georgia...

CITY           SKY/WX    TMP DP  RH WIND       PRES   REMARKS
Savannah Arpt  FAIR      65  60  84 SW8       30.13S
Hunter AAF     FAIR      65  62  90 SW7       30.11S
Fort Stewart   FAIR      65  59  81 SW6       30.12S
Statesboro     FAIR      66  59  79 SW6       30.12S
Sylvania       FAIR      65  64  95 SW5       30.11F
Claxton        FAIR      65  62  89 CALM      30.13S

...CSRA, Central and far Southeast Georgia...

CITY           SKY/WX    TMP DP  RH WIND       PRES   REMARKS
Thomson        CLOUDY    55  52  92 CALM      30.16S
Augusta-Bush   FAIR      57  55  93 N13       30.10R
Augusta-Daniel MOCLDY    56  53  90 N7        30.11R
Swainsboro     FAIR      64  63  94 SW5       30.12S
Vidalia        FAIR      63  63 100 SW6       30.13S
Eastman        FAIR      65  55  70 SW5       30.15S
Hazlehurst     FAIR      65  61  89 SW6       30.13S
Alma           FAIR      61  58  90 S3        30.15R
Waycross       CLOUDY    65  62  90 SW8       30.16S
Jesup          FAIR      63  59  88 CALM      30.15S
Baxley         FAIR      59  59 100 CALM      30.14S
Brunswick      FAIR      64  59  82 SW7       30.15F
Saint Simons   FAIR      64  62  93 SW8       30.15S

$$

SCZ027-028-034-036>038-045-046-048>050-GAZ119-141-180800-
...Lake and Supplemental Coastal Observations...

STATION/POSITION TIME  TEMP    WIND        PRES    WAVE   SWELL
                       AIR SEA DIR/SP/G            HT/PER HT/PER/DIR
                 (UTC) (F)     (DEG/KT/KT) (MB)    (FT/S) (FT/S/D)
Winyah Bay       0645   60     240/  6     1019.0F
Lake Murray      0720   53      CALM  /  3 1019.0
ACE Basin NERRS  0645   60        CALM     1020.0S
Fort Pulaski     0700   63 59  220/  3/  5 1020.4
Sapelo Island    0700   61     210/  4     1021.0

$$

ANZ835-935-AMZ111-154-330-350-352-354-370-450-454-472-180800-
...C-MAN and Buoy Observations...

STATION/POSITION TIME  TEMP    WIND        PRES    WAVE   SWELL
                       AIR SEA DIR/SP/G            HT/PER HT/PER/DIR
                 (UTC) (F)     (DEG/KT/KT) (MB)    (FT/S) (FT/S/D)
Buoy 41004       0710   69 68  230/ 14/ 17 1019.6
Buoy 41008       0650   62 58  220/ 10/ 12 1020.4F   2/11   2/120/11
Folly Beach CMAN 0700   60     230/  9/ 12 1020.2R
Capers Nearshore 0708   54 56  240/ 10/ 14 1019.3S
Fripp Nearshore  0708   56 56  230/ 10/ 14 1018.8F


STATION/POSITION TIME  TEMP    WIND        PRES    WAVE   SWELL
                       AIR SEA DIR/SP/G            HT/PER HT/PER/DIR
                 (UTC) (F)     (DEG/KT/KT) (MB)    (FT/S) (FT/S/D)
5E St. Marys GA  0700      58                N/A     2/11   2/120/11
Frying Pan Buoy  0710   67 64  230/ 16/ 17 1018.5
Buoy 41025       0710   61 69  280/ 14/ 19 1017.7
Cape Lookout NC  0700          270/  5/  5 1017.7F
Buoy 41002       0650   73 72  220/ 16/ 17 1020.8F   5/ 9   3/100/ 9
Buoy 41010       NOT AVBL
St Augustine FL  0700   65 58  250/  6/  7 1022.1F


$$




USA.gov is the U.S. government's official web portal to all federal, state and local government web resources and services.